When you browse on this site, cookies collect data to enhance your experience and personalize the content and advertising you see.
Visit our Privacy Policy to learn more. By continuing to use the site, you agree to this use of cookies and data.
  • In Czech Republic
  • List of Countries
  • For 7 days
  • Water Temperature
  • Satellite Maps
  • Weather Map
  • Weather Widgets
  • user-avatar
    Login

    Hourly Weather Sumgayit

    Today, 18 June, Tuesday

    Time Temperature Precipitation Wind Pressure Humidity
    00:00 +29°C° 0 mm 4 mps 735 mmHg 40%
    01:00 +28°C° 0 mm 3 mps 735 mmHg 42%
    02:00 +28°C° 0 mm 3 mps 735 mmHg 44%
    03:00 +27°C° 0 mm 3 mps 735 mmHg 47%
    04:00 +28°C° 0 mm 2 mps 735 mmHg 45%
    05:00 +28°C° 0 mm 2 mps 735 mmHg 44%
    06:00 +28°C° 0 mm 2 mps 735 mmHg 43%
    07:00 +30°C° 0 mm 3 mps 736 mmHg 39%
    08:00 +32°C° 0 mm 4 mps 736 mmHg 35%
    09:00 +33°C° 0 mm 5 mps 736 mmHg 30%
    10:00 +34°C° 0 mm 5 mps 736 mmHg 29%
    11:00 +35°C° 0 mm 6 mps 736 mmHg 28%
    12:00 +35°C° 0 mm 7 mps 736 mmHg 27%
    13:00 +35°C° 0 mm 8 mps 736 mmHg 27%
    14:00 +35°C° 0 mm 8 mps 735 mmHg 27%
    15:00 +35°C° 0 mm 9 mps 735 mmHg 28%
    16:00 +34°C° 0.1 mm 10 mps 735 mmHg 30%
    17:00 +33°C° 0.1 mm 10 mps 735 mmHg 31%
    18:00 +32°C° 0.1 mm 11 mps 735 mmHg 33%
    19:00 +31°C° 0.1 mm 10 mps 735 mmHg 32%
    20:00 +31°C° 0.1 mm 10 mps 735 mmHg 32%
    21:00 +29°C° 0.1 mm 9 mps 736 mmHg 31%
    22:00 +29°C° 0 mm 8 mps 736 mmHg 31%
    23:00 +29°C° 0 mm 7 mps 736 mmHg 32%

    Tomorrow, 19 June, Wednesday

    Time Temperature Precipitation Wind Pressure Humidity
    00:00 +29°C° 0 mm 6 mps 736 mmHg 32%
    01:00 +28°C° 0 mm 6 mps 735 mmHg 32%
    02:00 +28°C° 0 mm 6 mps 735 mmHg 33%
    03:00 +28°C° 0 mm 5 mps 735 mmHg 33%
    04:00 +28°C° 0 mm 6 mps 735 mmHg 32%
    05:00 +29°C° 0 mm 7 mps 735 mmHg 31%
    06:00 +29°C° 0 mm 7 mps 735 mmHg 30%
    07:00 +30°C° 0.1 mm 7 mps 736 mmHg 28%
    08:00 +32°C° 0.1 mm 7 mps 736 mmHg 27%
    09:00 +33°C° 0.1 mm 7 mps 736 mmHg 25%
    10:00 +34°C° 0 mm 7 mps 736 mmHg 25%
    11:00 +34°C° 0 mm 7 mps 736 mmHg 24%
    12:00 +35°C° 0 mm 7 mps 736 mmHg 24%
    13:00 +35°C° 0 mm 7 mps 736 mmHg 24%
    14:00 +35°C° 0 mm 7 mps 735 mmHg 25%
    15:00 +35°C° 0 mm 7 mps 735 mmHg 25%
    16:00 +34°C° 0 mm 7 mps 735 mmHg 26%
    17:00 +33°C° 0 mm 7 mps 735 mmHg 27%
    18:00 +32°C° 0 mm 6 mps 735 mmHg 28%
    19:00 +32°C° 0 mm 6 mps 735 mmHg 30%
    20:00 +30°C° 0 mm 6 mps 735 mmHg 31%
    21:00 +29°C° 0 mm 5 mps 735 mmHg 33%
    22:00 +29°C° 0 mm 5 mps 735 mmHg 36%
    23:00 +28°C° 0 mm 5 mps 735 mmHg 39%

    Day after tomorrow, 20 June, Thursday

    Time Temperature Precipitation Wind Pressure Humidity
    00:00 +27°C° 0 mm 5 mps 735 mmHg 42%
    01:00 +27°C° 0 mm 5 mps 735 mmHg 44%
    02:00 +26°C° 0 mm 4 mps 735 mmHg 45%
    03:00 +26°C° 0 mm 4 mps 735 mmHg 46%
    04:00 +27°C° 0 mm 5 mps 735 mmHg 41%
    05:00 +28°C° 0 mm 5 mps 735 mmHg 35%
    06:00 +29°C° 0 mm 5 mps 735 mmHg 30%
    07:00 +30°C° 0 mm 5 mps 735 mmHg 26%
    08:00 +33°C° 0 mm 5 mps 735 mmHg 22%
    09:00 +35°C° 0 mm 6 mps 735 mmHg 19%
    10:00 +35°C° 0 mm 6 mps 735 mmHg 19%
    11:00 +36°C° 0 mm 6 mps 735 mmHg 19%
    12:00 +36°C° 0 mm 6 mps 735 mmHg 19%
    13:00 +36°C° 0 mm 7 mps 735 mmHg 20%
    14:00 +35°C° 0 mm 7 mps 735 mmHg 21%
    15:00 +35°C° 0 mm 8 mps 734 mmHg 21%
    16:00 +34°C° 0.1 mm 8 mps 734 mmHg 23%
    17:00 +33°C° 0.1 mm 8 mps 734 mmHg 24%
    18:00 +32°C° 0.1 mm 8 mps 734 mmHg 26%
    19:00 +32°C° 0 mm 9 mps 734 mmHg 27%
    20:00 +31°C° 0 mm 9 mps 735 mmHg 28%
    21:00 +31°C° 0 mm 9 mps 735 mmHg 29%
    22:00 +29°C° 0 mm 9 mps 735 mmHg 28%
    23:00 +29°C° 0 mm 9 mps 735 mmHg 27%

    21 June, Friday

    Time Temperature Precipitation Wind Pressure Humidity
    00:00 +29°C° 0 mm 9 mps 735 mmHg 27%
    01:00 +29°C° 0 mm 8 mps 735 mmHg 27%
    02:00 +28°C° 0 mm 8 mps 735 mmHg 28%
    03:00 +28°C° 0 mm 7 mps 735 mmHg 28%
    04:00 +28°C° 0 mm 7 mps 735 mmHg 26%
    05:00 +29°C° 0 mm 7 mps 735 mmHg 25%
    06:00 +30°C° 0 mm 7 mps 735 mmHg 23%
    07:00 +32°C° 0.1 mm 8 mps 735 mmHg 23%
    08:00 +33°C° 0.1 mm 9 mps 736 mmHg 23%
    09:00 +34°C° 0.1 mm 10 mps 736 mmHg 23%
    10:00 +34°C° 0.6 mm 10 mps 736 mmHg 24%
    11:00 +34°C° 0.6 mm 9 mps 736 mmHg 26%
    12:00 +34°C° 0.6 mm 9 mps 736 mmHg 28%
    13:00 +34°C° 0.3 mm 10 mps 736 mmHg 28%
    14:00 +33°C° 0.3 mm 11 mps 735 mmHg 29%
    15:00 +33°C° 0.3 mm 11 mps 735 mmHg 30%
    16:00 +33°C° 0.1 mm 11 mps 735 mmHg 30%
    17:00 +32°C° 0.1 mm 11 mps 735 mmHg 31%
    18:00 +32°C° 0.1 mm 12 mps 735 mmHg 31%
    19:00 +31°C° 0 mm 11 mps 736 mmHg 33%
    20:00 +31°C° 0 mm 11 mps 736 mmHg 34%
    21:00 +29°C° 0 mm 11 mps 736 mmHg 35%
    22:00 +29°C° 0 mm 10 mps 736 mmHg 34%
    23:00 +29°C° 0 mm 9 mps 736 mmHg 34%

    22 June, Saturday

    Time Temperature Precipitation Wind Pressure Humidity
    00:00 +29°C° 0 mm 8 mps 736 mmHg 33%
    01:00 +28°C° 0 mm 8 mps 736 mmHg 33%
    02:00 +28°C° 0 mm 7 mps 736 mmHg 34%
    03:00 +28°C° 0 mm 7 mps 736 mmHg 34%
    04:00 +28°C° 0 mm 8 mps 736 mmHg 33%
    05:00 +29°C° 0 mm 8 mps 736 mmHg 31%
    06:00 +31°C° 0 mm 9 mps 737 mmHg 30%
    07:00 +32°C° 0.1 mm 10 mps 737 mmHg 29%
    08:00 +32°C° 0.1 mm 10 mps 737 mmHg 28%
    09:00 +33°C° 0.1 mm 11 mps 737 mmHg 27%
    10:00 +34°C° 0.2 mm 11 mps 737 mmHg 27%
    11:00 +36°C° 0.2 mm 11 mps 737 mmHg 26%
    12:00 +36°C° 0.2 mm 10 mps 737 mmHg 26%
    13:00 +36°C° 0.1 mm 11 mps 736 mmHg 26%
    14:00 +36°C° 0.1 mm 11 mps 736 mmHg 26%
    15:00 +36°C° 0.1 mm 11 mps 736 mmHg 26%
    16:00 +34°C° 0 mm 11 mps 736 mmHg 28%
    17:00 +33°C° 0 mm 11 mps 736 mmHg 31%
    18:00 +32°C° 0 mm 11 mps 736 mmHg 34%
    19:00 +32°C° 0 mm 10 mps 736 mmHg 34%
    20:00 +31°C° 0 mm 10 mps 736 mmHg 34%
    21:00 +31°C° 0 mm 9 mps 737 mmHg 33%
    22:00 +31°C° 0 mm 9 mps 737 mmHg 33%
    23:00 +31°C° 0 mm 8 mps 736 mmHg 32%

    23 June, Sunday

    Time Temperature Precipitation Wind Pressure Humidity
    00:00 +31°C° 0 mm 8 mps 736 mmHg 31%
    01:00 +29°C° 0 mm 8 mps 736 mmHg 33%
    02:00 +29°C° 0 mm 7 mps 736 mmHg 34%
    03:00 +28°C° 0 mm 7 mps 736 mmHg 35%
    04:00 +29°C° 0 mm 7 mps 736 mmHg 35%
    05:00 +29°C° 0 mm 8 mps 736 mmHg 35%
    06:00 +29°C° 0 mm 8 mps 736 mmHg 34%
    07:00 +31°C° 0 mm 8 mps 736 mmHg 33%
    08:00 +33°C° 0 mm 8 mps 736 mmHg 31%
    09:00 +34°C° 0 mm 8 mps 737 mmHg 29%
    10:00 +34°C° 0 mm 8 mps 737 mmHg 29%
    11:00 +35°C° 0 mm 8 mps 736 mmHg 29%
    12:00 +37°C° 0 mm 8 mps 736 mmHg 29%
    13:00 +35°C° 0 mm 8 mps 736 mmHg 29%
    14:00 +35°C° 0 mm 9 mps 736 mmHg 30%
    15:00 +36°C° 0 mm 10 mps 736 mmHg 31%
    16:00 +34°C° 0 mm 10 mps 736 mmHg 32%
    17:00 +33°C° 0 mm 10 mps 736 mmHg 33%
    18:00 +33°C° 0 mm 10 mps 736 mmHg 34%
    19:00 +32°C° 0 mm 11 mps 736 mmHg 36%
    20:00 +31°C° 0 mm 11 mps 736 mmHg 38%
    21:00 +31°C° 0 mm 11 mps 736 mmHg 40%
    22:00 +31°C° 0 mm 11 mps 736 mmHg 40%
    23:00 +29°C° 0 mm 10 mps 736 mmHg 39%
    Show more